Change the Weather History Date:

Wednesday, September 12, 2012

  Actual Average (KMML) Record (KMML)
Temperature  
Mean Temperature 61 °F -  
Max Temperature 69 °F 74 °F 91 °F (1998)
Min Temperature 53 °F 52 °F 33 °F (2007)
Degree Days  
Heating Degree Days 4    
Growing Degree Days 11 (Base 50)    
Moisture  
Dew Point 46 °F    
Average Humidity 64    
Maximum Humidity 82    
Minimum Humidity 21    
Precipitation  
Precipitation 0.00 in - - ()
Sea Level Pressure  
Sea Level Pressure 30.16 in    
Wind  
Wind Speed 5 mph (WSW)    
Max Wind Speed 12 mph    
Max Gust Speed 18 mph    
Visibility 10 miles    
Events Rain    
Averages and records for this station are not official NWS values.
T = Trace of Precipitation, MM = Missing Value Source: NWS Daily Summary

Daily Weather History Graph

Daily Weather History Graph

Search for Another Location

Airport or City:

Trip Planner

Search our weather history database for the weather conditions in past years. The results will help you decide how hot, cold, wet, or windy it might be!

Date:

Astronomy

Sep. 12, 2012 Rise Set
Actual Time 7:00 AM CDT 7:40 PM CDT
Civil Twilight 6:31 AM CDT 8:09 PM CDT
Nautical Twilight 5:56 AM CDT 8:44 PM CDT
Astronomical Twilight 5:20 AM CDT 9:20 PM CDT
Moon 3:11 AM CDT (9/12) 5:34 PM CDT (9/12)
Length of Visible Light 13h 38m
Length of Day
12h 39m
Waning Crescent, 13% of the Moon is Illuminated
Sep 12
Waning Crescent
Sep 15
New
Sep 22
First Quarter
Sep 29
Full
Oct 8
Last Quarter

Hourly Weather History & Observations

Time (CDT) Temp. Dew Point Humidity Pressure Visibility Wind Dir Wind Speed Gust Speed Precip Events Conditions
12:13 AM 60.6 °F 44.4 °F 55% 30.00 in 10.0 mi NNW 9.2 mph 18.4 mph 0.02 in Rain Heavy Rain
12:45 AM 57.2 °F 48.2 °F 72% 30.01 in 10.0 mi NNW 3.5 mph - N/A   Overcast
1:05 AM 55.4 °F 50.0 °F 82% 30.04 in 10.0 mi West 5.8 mph - N/A   Overcast
1:25 AM 55.4 °F 50.0 °F 82% 30.03 in 10.0 mi NNW 4.6 mph - N/A   Overcast
1:45 AM 57.2 °F 46.4 °F 67% 30.03 in 10.0 mi NNW 4.6 mph - N/A   Overcast
2:05 AM 57.2 °F 48.2 °F 72% 30.04 in 10.0 mi NW 4.6 mph - N/A   Overcast
2:25 AM 57.2 °F 50.0 °F 77% 30.05 in 10.0 mi West 6.9 mph - N/A   Overcast
2:45 AM 55.4 °F 50.0 °F 82% 30.05 in 10.0 mi West 3.5 mph - N/A   Overcast
3:05 AM 57.2 °F 50.0 °F 77% 30.06 in 10.0 mi WSW 5.8 mph - N/A   Overcast
3:25 AM 55.4 °F 50.0 °F 82% 30.06 in 10.0 mi WNW 4.6 mph - N/A   Overcast
3:45 AM 55.4 °F 50.0 °F 82% 30.05 in 10.0 mi WNW 4.6 mph - N/A   Overcast
4:05 AM 55.4 °F 48.2 °F 77% 30.07 in 10.0 mi NW 6.9 mph - N/A   Overcast
4:25 AM 55.4 °F 48.2 °F 77% 30.07 in 10.0 mi NW 6.9 mph - N/A   Overcast
4:45 AM 55.4 °F 48.2 °F 77% 30.10 in 10.0 mi SW 3.5 mph - N/A   Overcast
5:05 AM 55.4 °F 50.0 °F 82% 30.08 in 10.0 mi Calm Calm - N/A   Overcast
5:25 AM 55.4 °F 48.2 °F 77% 30.08 in 10.0 mi WSW 3.5 mph - N/A   Overcast
5:45 AM 53.6 °F 48.2 °F 82% 30.09 in 10.0 mi SSE 4.6 mph - N/A   Overcast
6:05 AM 55.4 °F 50.0 °F 82% 30.09 in 10.0 mi Calm Calm - N/A   Overcast
6:25 AM 55.4 °F 50.0 °F 82% 30.12 in 10.0 mi WSW 6.9 mph - N/A   Overcast
6:45 AM 55.4 °F 50.0 °F 82% 30.09 in 10.0 mi Calm Calm - N/A   Overcast
7:05 AM 55.4 °F 48.2 °F 77% 30.13 in 10.0 mi South 6.9 mph - N/A   Overcast
7:25 AM 57.2 °F 46.4 °F 67% 30.12 in 10.0 mi SSW 3.5 mph - N/A   Mostly Cloudy
7:45 AM 57.2 °F 50.0 °F 77% 30.10 in 10.0 mi Calm Calm - N/A   Overcast
8:05 AM 55.4 °F 50.0 °F 82% 30.11 in 10.0 mi Calm Calm - N/A   Overcast
8:25 AM 57.2 °F 50.0 °F 77% 30.13 in 10.0 mi WSW 3.5 mph - N/A   Overcast
8:45 AM 57.2 °F 48.2 °F 72% 30.14 in 10.0 mi SSE 4.6 mph - N/A   Overcast
9:05 AM 57.2 °F 48.2 °F 72% 30.17 in 10.0 mi SW 3.5 mph - N/A   Overcast
9:25 AM 59.0 °F 44.6 °F 59% 30.16 in 10.0 mi South 9.2 mph - N/A   Overcast
9:45 AM 57.2 °F 44.6 °F 63% 30.17 in 10.0 mi NNW 11.5 mph - N/A   Overcast
10:05 AM 57.2 °F 48.2 °F 72% 30.18 in 10.0 mi Calm Calm - N/A   Overcast
10:25 AM 57.2 °F 46.4 °F 67% 30.19 in 10.0 mi WNW 8.1 mph - N/A   Overcast
10:45 AM 57.2 °F 46.4 °F 67% 30.20 in 10.0 mi West 4.6 mph - N/A   Overcast
11:05 AM 57.2 °F 46.4 °F 67% 30.20 in 10.0 mi WNW 3.5 mph - N/A   Mostly Cloudy
11:25 AM 57.2 °F 46.4 °F 67% 30.20 in 10.0 mi West 3.5 mph - N/A   Mostly Cloudy
11:45 AM 57.2 °F 46.4 °F 67% 30.20 in 10.0 mi Calm Calm - N/A   Scattered Clouds
12:05 PM 59.0 °F 44.6 °F 59% 30.21 in 10.0 mi West 3.5 mph - N/A   Scattered Clouds
12:25 PM 59.0 °F 44.6 °F 59% 30.21 in 10.0 mi West 3.5 mph - N/A   Clear
12:45 PM 59.0 °F 44.6 °F 59% 30.22 in 10.0 mi WSW 3.5 mph - N/A   Clear
1:05 PM 60.8 °F 42.8 °F 52% 30.21 in 10.0 mi SW 4.6 mph - N/A   Clear
1:25 PM 60.8 °F 42.8 °F 52% 30.21 in 10.0 mi SW 3.5 mph - N/A   Clear
1:45 PM 62.6 °F 42.8 °F 48% 30.21 in 10.0 mi West 4.6 mph - N/A   Clear
2:05 PM 62.6 °F 39.2 °F 42% 30.21 in 10.0 mi West 3.5 mph - N/A   Clear
2:25 PM 64.4 °F 37.4 °F 37% 30.20 in 10.0 mi Calm Calm - N/A   Clear
2:45 PM 64.4 °F 35.6 °F 34% 30.20 in 10.0 mi Calm Calm - N/A   Clear
3:05 PM 66.2 °F 35.6 °F 32% 30.20 in 10.0 mi Calm Calm - N/A   Clear
3:25 PM 66.2 °F 33.8 °F 30% 30.20 in 10.0 mi Calm Calm - N/A   Clear
3:45 PM 68.0 °F 32.0 °F 26% 30.20 in 10.0 mi SE 3.5 mph - N/A   Clear
4:05 PM 68.0 °F 26.6 °F 21% 30.20 in 10.0 mi Calm Calm - N/A   Clear
4:25 PM 68.0 °F 28.4 °F 23% 30.20 in 10.0 mi Calm Calm - N/A   Clear
4:56 PM 69.4 °F 33.4 °F 26% 30.20 in 10.0 mi SSW 6.9 mph - N/A   Clear
5:14 PM 68.9 °F 37.2 °F 31% 30.20 in 10.0 mi SW 6.9 mph - N/A   Clear
5:34 PM 68.7 °F 41.2 °F 37% 30.20 in 10.0 mi South 9.2 mph - N/A   Clear
5:54 PM 66.0 °F 43.0 °F 43% 30.20 in 10.0 mi SSW 6.9 mph - N/A   Clear
6:14 PM 66.0 °F 44.1 °F 45% 30.21 in 10.0 mi SSW 6.9 mph - N/A   Clear
6:34 PM 64.4 °F 47.7 °F 55% 30.21 in 10.0 mi SSW 5.8 mph - N/A   Clear
7:34 PM 62.8 °F 46.4 °F 55% 30.22 in 10.0 mi SW 4.6 mph - N/A   Clear
7:54 PM 62.1 °F 46.8 °F 57% 30.23 in 10.0 mi SW 4.6 mph - N/A   Clear
8:14 PM 61.0 °F 48.2 °F 63% 30.24 in 10.0 mi SW 5.8 mph - N/A   Clear
8:34 PM 59.9 °F 49.1 °F 67% 30.24 in 10.0 mi SW 5.8 mph - N/A   Clear
8:54 PM 59.2 °F 49.6 °F 71% 30.25 in 10.0 mi SSW 6.9 mph - N/A   Clear
9:14 PM 58.6 °F 50.4 °F 74% 30.25 in 10.0 mi SW 6.9 mph - N/A   Clear
9:34 PM 58.5 °F 50.4 °F 74% 30.25 in 10.0 mi SW 6.9 mph - N/A   Clear
9:54 PM 58.3 °F 50.2 °F 74% 30.26 in 10.0 mi WSW 8.1 mph - N/A   Clear
10:14 PM 58.1 °F 50.2 °F 75% 30.26 in 10.0 mi WSW 8.1 mph - N/A   Clear
10:34 PM 58.1 °F 50.4 °F 75% 30.26 in 10.0 mi WSW 8.1 mph - N/A   Clear
10:54 PM 57.2 °F 50.4 °F 78% 30.26 in 10.0 mi WSW 10.4 mph - N/A   Clear
11:14 PM 56.1 °F 50.4 °F 81% 30.27 in 10.0 mi West 8.1 mph - N/A   Clear
11:34 PM 55.8 °F 50.4 °F 82% 30.27 in 10.0 mi West 10.4 mph - N/A   Clear
11:54 PM 55.8 °F 50.2 °F 82% 30.27 in 10.0 mi West 10.4 mph - N/A   Clear